Tracking 17154 objects as of 31-July-2015
HD Live streaming from Space Station

AMAZONAS 2

Track AMAZONAS 2 now!
AMAZONAS 2 is classified as:


NORAD ID: 35942
Int'l Code: 2009-054A
Perigee: 35,769.7 km
Apogee: 35,818.6 km
Inclination: 0.0 °
Period: 1,436.1 minutes
Semi major axis: 42165 km
RCS: 8.2771 m2 (large)
Launch date: September 30, 2009
Source: Spain (SPN)

Amazonas 2 was built by Astrium based on its Eurostar E3000 satellite bus, for on-orbit delivery in 2009. Amazonas 2 will be operated from at 61° West, providing relay services with 54 Ku band and 10 C band transponders.
Your satellite tracking list
Your tracking list is empty





NASA's NSSDC Master Catalog

Two Line Element Set (TLE):
1 35942U 09054A   15210.07080947 -.00000290  00000-0  00000+0 0  9996
2 35942 000.0325 146.6499 0005801 347.1372 137.0935 01.00270238 21335

Source of the keplerian elements: AFSPC

N2YO: 273